Meteo Giornale » Osservazioni meteo Stati Uniti (USA) » Oxford
ore: 13:56 - Osservazioni Meteo Oxford
Lat. 41° 29' N Lon. 73° 8' W Alt. 222 metri s.l.m.
22 °C
Coperto
Temp. 24 Ore
19 °C
23 °C
Sud/Sud-Est
7.4 Km/h
Dew point 21 °C
Umidità 94 %
Visibilità 14 Km
Il sole sorge alle ore 06:18
Il sole tramonta alle ore 19:25
| Data e Ora | Cielo e Fenomeni | T °C | DP °C | Um. % | Pres. hPa | Vis. km | Vento km/h | |
|---|---|---|---|---|---|---|---|---|
| Oggi h: 13:56 | Coperto | 22 | 21 | 94 | 1016 | 14 | S/SE 7.4 | |
| Oggi h: 13:02 | Coperto | 22 | 21 | 94 | 1016 | 11 | S 9.3 | |
| Oggi h: 12:56 | Coperto | 22 | 21 | 94 | 1016 | 14 | S 11.1 | |
| Oggi h: 11:56 | Coperto | 21 | 21 | 100 | 1017 | 11 | S/SO 9.3 | |
| Oggi h: 11:36 | Coperto | 21 | 21 | 100 | 1016 | 11 | S 9.3 | |
| Oggi h: 10:56 | Foschia | 21 | 21 | 100 | 1017 | 2 | S 9.3 | |
| Oggi h: 10:01 | Pioggia Foschia | 20 | 20 | 100 | 1017 | 2 | S/SE 7.4 | |
| Oggi h: 09:56 | Pioggia Foschia | 20 | 20 | 100 | 1017 | 5 | S/SE 7.4 | |
| Oggi h: 09:14 | Pioggia Foschia | 20 | 20 | 100 | 1017 | 2 | N 5.5 | |
| Oggi h: 08:56 | Foschia | 20 | 20 | 100 | 1017 | 5 | S 9.3 | |
| Oggi h: 08:37 | Foschia | 20 | 20 | 100 | 1017 | 3 | S 9.3 | |
| Oggi h: 07:56 | Pioggia Foschia | 19 | 19 | 100 | 1017 | 5 | S 11.1 | |
| Oggi h: 07:46 | Foschia | 19 | 19 | 100 | 1017 | 2 | S 7.4 | |
| Oggi h: 07:27 | Foschia | 19 | 19 | 100 | 1017 | 5 | S 9.3 | |
| Oggi h: 07:19 | Foschia | 19 | 19 | 100 | 1017 | 5 | S 9.3 | |
| Oggi h: 07:09 | Foschia | 19 | 19 | 100 | 1017 | 5 | S/SO 7.4 | |
| Oggi h: 06:56 | Nebbia | 19 | 19 | 100 | 1017 | 2 | S 9.3 | |
| Oggi h: 06:33 | Nebbia | 19 | 19 | 100 | 1017 | 2 | N 5.5 | |
| Oggi h: 06:24 | Foschia | 19 | 19 | 100 | 1017 | 5 | S/SO 9.3 | |
| Oggi h: 06:07 | Foschia | 19 | 19 | 100 | 1017 | 3 | S 11.1 | |
| Oggi h: 05:56 | Foschia | 19 | 19 | 100 | 1017 | 5 | S/SO 7.4 | |
| Oggi h: 05:44 | Foschia | 19 | 19 | 100 | 1017 | 6 | S 11.1 | |
| Oggi h: 05:30 | Foschia | 19 | 19 | 100 | 1017 | 3 | S 9.3 | |
| Oggi h: 04:56 | Pioggia Foschia | 19 | 19 | 100 | 1017 | 8 | S 7.4 | |
| Oggi h: 04:10 | Pioggia Foschia | 19 | 19 | 100 | 1017 | 8 | S 7.4 | |
| Oggi h: 03:56 | Pioggia | 19 | 19 | 100 | 1017 | 13 | S/SE 7.4 | |
| Oggi h: 02:56 | Pioggia | 19 | 19 | 100 | 1018 | 13 | S/SE 7.4 | |
| Oggi h: 02:42 | Pioggia Foschia | 19 | 19 | 100 | 1018 | 8 | N 5.5 | |
| Oggi h: 02:20 | Pioggia | 19 | 19 | 100 | 1018 | 11 | S 9.3 | |
| Oggi h: 01:56 | Pioggia Foschia | 19 | 19 | 100 | 1018 | 10 | N 5.5 | |
| Oggi h: 01:28 | Pioggia | 19 | 19 | 100 | 1018 | 10 | SE 7.4 | |
| Oggi h: 01:11 | Coperto | 19 | 18 | 93 | 1018 | 14 | S 7.4 | |
| Oggi h: 00:56 | Coperto | 19 | 18 | 93 | 1019 | 10 | N 5.5 | |
| Ieri h: 23:56 | Coperto | 19 | 18 | 93 | 1019 | 10 | S 9.3 | |
| Ieri h: 23:14 | Coperto | 19 | 18 | 93 | 1019 | 10 | S 7.4 | |
| Ieri h: 22:56 | Pioggia | 19 | 18 | 93 | 1019 | 10 | S 7.4 | |
| Ieri h: 21:56 | Coperto | 19 | 18 | 93 | 1019 | 10 | S 9.3 | |
| Ieri h: 20:56 | Coperto | 20 | 18 | 88 | 1019 | 10 | S 7.4 | |
| Ieri h: 20:25 | Coperto | 20 | 18 | 88 | 1019 | 10 | S/SE 9.3 | |
| Ieri h: 19:56 | Coperto | 21 | 17 | 77 | 1019 | 10 | S/SE 11.1 | |
| Ieri h: 18:56 | Coperto | 21 | 18 | 82 | 1020 | 10 | S/SE 11.1 | |
| Ieri h: 17:56 | Coperto | 22 | 17 | 73 | 1019 | 10 | S 11.1 | |
| Ieri h: 16:56 | Molto Nuvoloso | 22 | 15 | 64 | 1019 | 10 | S/SE 9.3 | |
| Ieri h: 15:56 | Nuvoloso | 23 | 13 | 53 | 1020 | 10 | S/SO 11.1 | |
| Ieri h: 14:56 | Molto Nuvoloso | 23 | 15 | 60 | 1020 | 10 | S 13 | |
| Ieri h: 14:47 | Nuvoloso | 23 | 16 | 64 | 1020 | 10 | S 11.1 | |



